sat.trackr.live / text

‹ back to catalog

GEESAT-1 03

NORAD 52787 · 2022-058C

PAYLOAD ACTIVE UNKNOWN

§ Identity

Operator
Country
PRC
Launch date
2022-06-02
Launch site
XICLF
Launch vehicle
Mass (kg)
RCS (m²)

External: N2YO · Heavens-Above · Gunter

§ Orbital elements

Epoch: 2026-05-25T03:54:30.119040Z

Period
97.21 min
Inclination
49.9882°
Eccentricity
0.0008004
Mean motion
14.81287198 rev/d
Perigee alt
619.7 km
Apogee alt
630.9 km
Semi-major
7,003.4 km
B*
2.2448e-4
RAAN
307.7286°
Arg perigee
17.5920°
Mean anomaly
342.5293°
Rev number
21,652

§ Raw data

GEESAT-1 031 52787U 22058C   26145.16284860  .00001547  00000+0  22448-3 0  99982 52787  49.9882 307.7286 0008004  17.5920 342.5293 14.81287198216523

JSON: /api/v1/satellites/52787 · /tle

For live sub-satellite position, see the globe view (requires WebGL).

§ Visibility from observer

Set your observer location to see the next 7 days of passes ≥ 10°. The values pass through the URL so the page stays shareable.

No JS? Fill the form by hand. The geolocation button needs JavaScript.